Grand Etang, Nova Scotia

1:15 AM ADT on May 26, 2017 (GMT -0300)
Grand Etang

Weather History for CWZQ - December, 2013

Change the Weather History Date:

Thursday, December 26, 2013

  Actual Average Record
Temperature  
Mean Temperature -2 °F -  
Max Temperature 28 °F - - ()
Min Temperature -32 °F - - ()
Degree Days  
Heating Degree Days 67    
Moisture  
Dew Point 13 °F    
Average Humidity 73    
Maximum Humidity 94    
Minimum Humidity 53    
Precipitation  
Precipitation 0.00 in - - ()
Sea Level Pressure  
Sea Level Pressure 30.33 in    
Wind  
Wind Speed 12 mph ()    
Max Wind Speed 23 mph    
Max Gust Speed 32 mph    
Visibility 3.8 miles    
Events Snow    
T = Trace of Precipitation, MM = Missing Value Source: Averaged Metar Reports

Daily Weather History Graph

Daily Weather History Graph

Search for Another Location

Airport or City:

Trip Planner

Search our weather history database for the weather conditions in past years. The results will help you decide how hot, cold, wet, or windy it might be!

Date:

Astronomy

Dec. 26, 2013 Rise Set
Actual Time 7:47 AM AST 4:22 PM AST
Civil Twilight 7:12 AM AST 4:57 PM AST
Nautical Twilight 6:33 AM AST 5:36 PM AST
Astronomical Twilight 5:57 AM AST 6:12 PM AST
Moon 12:54 AM AST 12:10 PM AST
Length of Visible Light 9h 45m
Length of Day
8h 35m
Last Quarter, 39% of the Moon is Illuminated
Dec 26
Last Quarter
Jan 1
New
Jan 7
First Quarter
Jan 16
Full
Jan 24
Last Quarter

Hourly Weather History & Observations

Time (AST) Temp. Windchill Dew Point Humidity Pressure Visibility Wind Dir Wind Speed Gust Speed Precip Events Conditions
12:00 AM 22.6 °F 7.9 °F 14.5 °F 71% 30.41 in - NW 19.6 mph - N/A   Unknown
12:20 AM 22.8 °F 8.5 °F 15.6 °F 74% - - NW 18.4 mph - N/A   Unknown
12:40 AM 23.0 °F 8.7 °F 16.3 °F 76% - - NW 18.4 mph 24.2 mph N/A   Unknown
1:00 AM 22.8 °F 9.4 °F 15.6 °F 74% 30.41 in - NW 16.1 mph 21.9 mph N/A   Unknown
1:20 AM 23.0 °F 10.1 °F 15.4 °F 73% - - NW 15.0 mph 21.9 mph N/A   Unknown
1:40 AM 22.8 °F 9.4 °F 15.1 °F 72% - - WNW 16.1 mph 21.9 mph N/A   Unknown
2:00 AM -25 °F - -31 °F 58% 29.69 in 4 mi NNW 10.4 mph - -   Light Haze
2:00 AM 22.8 °F 10.4 °F 15.8 °F 74% 30.45 in - WNW 13.8 mph - N/A   Unknown
2:20 AM 23.0 °F 10.1 °F 15.3 °F 72% - - West 15.0 mph 21.9 mph N/A   Unknown
2:40 AM 22.8 °F 12.2 °F 15.3 °F 73% - - NW 10.4 mph 17.3 mph N/A   Unknown
3:00 AM 22.5 °F 11.1 °F 14.5 °F 72% 30.48 in - West 11.5 mph 18.4 mph N/A   Unknown
3:20 AM 22.5 °F 11.1 °F 13.8 °F 69% - - WNW 11.5 mph 17.3 mph N/A   Unknown
3:40 AM 22.6 °F 13.4 °F 14.7 °F 72% - - WNW 8.1 mph - N/A   Unknown
4:00 AM 22.6 °F 13.4 °F 15.1 °F 73% 30.48 in - NW 8.1 mph - N/A   Unknown
4:20 AM 22.8 °F 11.5 °F 14.7 °F 71% - - West 11.5 mph - N/A   Unknown
4:40 AM 23.0 °F 14.7 °F 15.3 °F 72% - - WNW 6.9 mph - N/A   Unknown
5:00 AM 23.0 °F 12.4 °F 14.7 °F 71% 30.49 in - West 10.4 mph - N/A   Unknown
5:20 AM 22.8 °F 14.5 °F 15.3 °F 73% - - West 6.9 mph - N/A   Unknown
5:40 AM 23.0 °F 12.4 °F 15.4 °F 73% - - West 10.4 mph - N/A   Unknown
6:00 AM 22.6 °F 13.4 °F 16.2 °F 76% 30.50 in - WSW 8.1 mph - N/A   Unknown
6:20 AM 22.8 °F 11.5 °F 16.0 °F 75% - - West 11.5 mph - N/A   Unknown
6:40 AM 22.3 °F 13.9 °F 14.5 °F 72% - - WSW 6.9 mph - N/A   Unknown
7:00 AM 23.9 °F 15.8 °F 13.3 °F 64% 30.51 in - West 6.9 mph - N/A   Unknown
7:20 AM 22.5 °F 15.1 °F 14.4 °F 71% - - WSW 5.8 mph - N/A   Unknown
7:40 AM 22.8 °F 14.5 °F 15.3 °F 73% - - West 6.9 mph - N/A   Unknown
8:00 AM -29 °F - -35 °F 56% 29.70 in 4 mi NNW 11.5 mph - -   Light Haze
8:00 AM 22.3 °F 14.9 °F 15.1 °F 74% 30.51 in - SSW 5.8 mph - N/A   Unknown
8:20 AM 23.4 °F 14.3 °F 18.5 °F 82% - - SSW 8.1 mph - N/A   Unknown
8:40 AM 23.2 °F 13.3 °F 15.8 °F 73% - - SSW 9.2 mph - N/A   Unknown
9:00 AM 25.7 °F 15.1 °F 16.9 °F 69% 30.53 in - SW 11.5 mph - N/A   Unknown
9:20 AM 23.4 °F 12.2 °F 15.3 °F 71% - - SW 11.5 mph - N/A   Unknown
9:40 AM 23.2 °F 12.6 °F 15.6 °F 73% - - SSW 10.4 mph - N/A   Unknown
10:00 AM 23.0 °F 13.9 °F 15.1 °F 72% 30.53 in - South 8.1 mph - N/A   Unknown
10:20 AM 23.4 °F 12.2 °F 16.2 °F 74% - - SW 11.5 mph - N/A   Unknown
10:40 AM 23.0 °F 11.1 °F 15.3 °F 72% - - SW 12.7 mph - N/A   Unknown
11:00 AM 23.2 °F 10.8 °F 18.5 °F 82% 30.54 in - SSW 13.8 mph - N/A   Unknown
11:20 AM 23.0 °F 10.1 °F 16.3 °F 76% - - SSW 15.0 mph - N/A   Unknown
11:40 AM 23.0 °F 11.1 °F 18.5 °F 83% - - SSW 12.7 mph - N/A   Unknown
12:00 PM 22.8 °F 9.4 °F 15.4 °F 73% 30.52 in - SSW 16.1 mph - N/A   Unknown
12:20 PM 23.4 °F 10.1 °F 17.4 °F 78% - - SSW 16.1 mph - N/A   Unknown
12:40 PM 23.4 °F 12.8 °F 14.9 °F 70% - - SSW 10.4 mph 20.7 mph N/A   Unknown
1:00 PM 22.6 °F 12.6 °F 14.7 °F 72% 30.49 in - SSW 9.2 mph - N/A   Unknown
1:20 PM 22.6 °F 14.3 °F 15.3 °F 73% - - SSW 6.9 mph - N/A   Unknown
1:40 PM 22.8 °F 12.9 °F 14.7 °F 71% - - SSW 9.2 mph - N/A   Unknown
2:00 PM -30 °F - -36 °F 55% 29.72 in 4 mi NNW 12.7 mph - - Snow Light Snow
2:00 PM 23.0 °F 13.9 °F 13.8 °F 68% 30.46 in - SSW 8.1 mph - N/A   Unknown
2:20 PM 22.5 °F 12.4 °F 14.2 °F 71% - - South 9.2 mph - N/A   Unknown
2:40 PM 22.5 °F 12.4 °F 14.4 °F 71% - - SSW 9.2 mph - N/A   Unknown
3:00 PM 22.3 °F 13.0 °F 14.7 °F 73% 30.45 in - South 8.1 mph - N/A   Unknown
3:20 PM 22.8 °F 13.6 °F 14.5 °F 71% - - South 8.1 mph - N/A   Unknown
3:40 PM 22.5 °F 12.4 °F 12.0 °F 64% - - South 9.2 mph - N/A   Unknown
4:00 PM 22.1 °F 12.8 °F 14.2 °F 72% 30.45 in - South 8.1 mph - N/A   Unknown
4:20 PM 21.7 °F 12.3 °F 13.5 °F 70% - - South 8.1 mph - N/A   Unknown
4:40 PM 21.9 °F 13.4 °F 14.9 °F 74% - - SSE 6.9 mph - N/A   Unknown
5:00 PM 21.7 °F 12.3 °F 14.0 °F 72% 30.41 in - SSE 8.1 mph - N/A   Unknown
5:20 PM 21.7 °F 13.2 °F 13.3 °F 70% - - South 6.9 mph - N/A   Unknown
5:40 PM 21.6 °F 13.0 °F 14.9 °F 76% - - South 6.9 mph - N/A   Unknown
6:00 PM 21.6 °F 9.3 °F 10.9 °F 64% 30.38 in - SE 12.7 mph 19.6 mph N/A   Unknown
6:20 PM 21.4 °F 9.7 °F 10.6 °F 63% - - SE 11.5 mph 19.6 mph N/A   Unknown
6:40 PM 21.7 °F 12.3 °F 9.1 °F 58% - - South 8.1 mph 19.6 mph N/A   Unknown
7:00 PM 22.3 °F 12.2 °F 13.5 °F 69% 30.33 in - South 9.2 mph 18.4 mph N/A   Unknown
7:20 PM 22.8 °F 12.2 °F 14.7 °F 71% - - SSE 10.4 mph 18.4 mph N/A   Unknown
7:40 PM 24.3 °F 13.9 °F 18.5 °F 79% - - SSE 10.4 mph 20.7 mph N/A   Unknown
8:00 PM -32 °F - -39 °F 53% 29.75 in 3 mi NNW 15.0 mph - -   Light Haze
8:00 PM 24.4 °F 12.4 °F 17.4 °F 75% 30.32 in - SE 13.8 mph 19.6 mph N/A   Unknown
8:20 PM 25.5 °F 11.6 °F 18.5 °F 75% - - SE 19.6 mph 26.5 mph N/A   Unknown
8:40 PM 27.5 °F 13.9 °F 19.0 °F 71% - - SE 20.7 mph 29.9 mph N/A   Unknown
9:00 PM 26.4 °F 11.8 °F 19.6 °F 75% 30.25 in - SE 23.0 mph 29.9 mph N/A   Unknown
9:20 PM 26.6 °F 13.1 °F 19.9 °F 76% - - ESE 19.6 mph 28.8 mph N/A   Unknown
9:40 PM 27.1 °F 13.1 °F 22.1 °F 81% - - SE 21.9 mph 29.9 mph N/A   Unknown
10:00 PM 27.3 °F 14.4 °F 21.2 °F 78% 30.22 in - SE 18.4 mph 27.6 mph N/A   Unknown
10:20 PM 27.5 °F 13.5 °F 23.0 °F 83% - - ESE 21.9 mph 32.2 mph N/A   Unknown
10:40 PM 26.8 °F 12.6 °F 24.4 °F 91% - - ESE 21.9 mph 32.2 mph N/A   Unknown
11:00 PM 26.6 °F 12.0 °F 25.0 °F 94% 30.16 in - ESE 23.0 mph 31.1 mph N/A   Unknown
11:20 PM 28.2 °F 14.5 °F 26.1 °F 92% - - ESE 21.9 mph 31.1 mph N/A   Unknown
11:40 PM 28.6 °F 16.8 °F 25.5 °F 88% - - East 16.1 mph 27.6 mph N/A   Unknown